| time (UTC) | temp C | wind direction | speed KPH | gust KPH | rain 1hr cm | rain 24hr cm | rain mn cm | humidity % | barometer mb |
| 20260902000537 | 17 | 314 | 9.7 | 19.3 | 0.00 | 0.00 | 0.00 | 67 | 1016.4 |
| 20260901234527 | 17 | 315 | 8.0 | 20.9 | 0.00 | 0.00 | 0.00 | 69 | 1016.2 |
| 20260901233524 | 16 | 315 | 8.0 | 16.1 | 0.00 | 0.00 | 0.00 | 70 | 1016.2 |
| 20260901231519 | 16 | 321 | 4.8 | 16.1 | 0.00 | 0.00 | 0.00 | 71 | 1016.0 |
| 20260901231030 | 16 | 337 | 9.7 | 20.9 | 0.00 | 0.00 | 0.00 | 71 | 1016.1 |
| 20260901225519 | 16 | 307 | 9.7 | 20.9 | 0.00 | 0.00 | 0.00 | 71 | 1016.2 |
| 20260901224526 | 15 | 304 | 14.5 | 16.1 | 0.00 | 0.00 | 0.00 | 72 | 1016.4 |
| 20260901224503 | 15 | 340 | 8.0 | 17.7 | 0.00 | 0.00 | 0.00 | 72 | 1016.4 |
| 20260901223531 | 15 | 331 | 4.8 | 6.4 | 0.00 | 0.00 | 0.00 | 73 | 1016.3 |
| 20260901223021 | 15 | 318 | 9.7 | 16.1 | 0.00 | 0.00 | 0.00 | 72 | 1016.3 |
| 20260901221530 | 15 | 308 | 11.3 | 20.9 | 0.00 | 0.00 | 0.00 | 73 | 1016.2 |
| 20260901220024 | 15 | 312 | 6.4 | 14.5 | 0.00 | 0.00 | 0.00 | 74 | 1016.1 |
| 20260901215034 | 15 | 316 | 6.4 | 20.9 | 0.00 | 0.00 | 0.00 | 74 | 1015.8 |
| 20260901214029 | 15 | 326 | 8.0 | 17.7 | 0.00 | 0.00 | 0.00 | 74 | 1015.7 |
| 20260901213030 | 15 | 307 | 6.4 | 17.7 | 0.00 | 0.00 | 0.00 | 74 | 1015.6 |
| 20260901212035 | 15 | 310 | 11.3 | 24.1 | 0.00 | 0.00 | 0.00 | 76 | 1015.4 |
| 20260901211018 | 14 | 305 | 8.0 | 19.3 | 0.00 | 0.00 | 0.00 | 78 | 1015.4 |
| 20260901210022 | 14 | 318 | 12.9 | 20.9 | 0.00 | 0.00 | 0.00 | 78 | 1015.4 |
| 20260901205034 | 13 | 314 | 9.7 | 20.9 | 0.00 | 0.00 | 0.00 | 79 | 1015.2 |
| 20260901204031 | 13 | 304 | 8.0 | 12.9 | 0.00 | 0.00 | 0.00 | 81 | 1015.3 |
| 20260901203034 | 13 | 312 | 6.4 | 12.9 | 0.00 | 0.00 | 0.00 | 83 | 1015.1 |
| 20260901202036 | 13 | 141 | 1.6 | 4.8 | 0.00 | 0.00 | 0.00 | 82 | 1015.2 |
| 20260901201019 | 13 | 7 | 1.6 | 4.8 | 0.00 | 0.00 | 0.00 | 81 | 1015.0 |
| 20260901200023 | 13 | 332 | 3.2 | 8.0 | 0.00 | 0.00 | 0.00 | 80 | 1015.0 |
| 20260901195026 | 14 | 317 | 6.4 | 11.3 | 0.00 | 0.00 | 0.00 | 80 | 1014.9 |
| 20260901194029 | 14 | 302 | 6.4 | 9.7 | 0.00 | 0.00 | 0.00 | 80 | 1014.8 |
| 20260901193033 | 14 | 308 | 4.8 | 12.9 | 0.00 | 0.00 | 0.00 | 80 | 1014.7 |
| 20260901192037 | 13 | 297 | 4.8 | 12.9 | 0.00 | 0.00 | 0.00 | 80 | 1014.7 |
| 20260901191027 | 14 | 314 | 6.4 | 17.7 | 0.00 | 0.00 | 0.00 | 80 | 1014.6 |
| 20260901190024 | 13 | 326 | 4.8 | 11.3 | 0.00 | 0.00 | 0.00 | 81 | 1014.7 |
| 20260901185027 | 13 | 330 | 3.2 | 14.5 | 0.00 | 0.00 | 0.00 | 81 | 1014.6 |
| 20260901184032 | 13 | 354 | 4.8 | 11.3 | 0.00 | 0.00 | 0.00 | 81 | 1014.5 |
| 20260901183035 | 13 | 16 | 4.8 | 11.3 | 0.00 | 0.00 | 0.00 | 81 | 1014.5 |
| 20260901182018 | 13 | 344 | 3.2 | 9.7 | 0.00 | 0.00 | 0.00 | 83 | 1015.0 |
| 20260901181035 | 13 | 358 | 4.8 | 11.3 | 0.00 | 0.00 | 0.00 | 84 | 1015.2 |
| 20260901180023 | 13 | 23 | 4.8 | 12.9 | 0.00 | 0.00 | 0.00 | 82 | 1015.1 |
| 20260901175030 | 13 | 5 | 4.8 | 9.7 | 0.00 | 0.00 | 0.00 | 82 | 1014.9 |
| 20260901174030 | 13 | 360 | 3.2 | 9.7 | 0.00 | 0.00 | 0.00 | 82 | 1014.9 |
| 20260901173034 | 13 | 17 | 3.2 | 9.7 | 0.00 | 0.00 | 0.00 | 82 | 1015.0 |
| 20260901172024 | 13 | 24 | 4.8 | 11.3 | 0.00 | 0.00 | 0.00 | 83 | 1014.9 |
| 20260901171020 | 14 | 41 | 3.2 | 9.7 | 0.00 | 0.00 | 0.00 | 80 | 1014.8 |
| 20260901170030 | 13 | 359 | 3.2 | 8.0 | 0.00 | 0.00 | 0.00 | 80 | 1015.9 |
| 20260901165026 | 13 | 27 | 1.6 | 8.0 | 0.00 | 0.00 | 0.00 | 81 | 1016.0 |
| 20260901164034 | 13 | 341 | 1.6 | 4.8 | 0.00 | 0.00 | 0.00 | 81 | 1016.0 |
| 20260901163022 | 13 | 321 | 1.6 | 3.2 | 0.00 | 0.00 | 0.00 | 81 | 1015.9 |
| 20260901162029 | 13 | 340 | 1.6 | 6.4 | 0.00 | 0.00 | 0.00 | 81 | 1016.0 |
| 20260901161038 | 14 | 2 | 3.2 | 6.4 | 0.00 | 0.00 | 0.00 | 79 | 1015.9 |
| 20260901160034 | 15 | 200 | 1.6 | 4.8 | 0.00 | 0.00 | 0.00 | 73 | 1015.7 |
| 20260901142041 | 13 | 25 | 3.2 | 8.0 | 0.00 | 0.00 | 0.00 | 83 | 1016.3 |
| 20260901140534 | 14 | 340 | 4.8 | 14.5 | 0.00 | 0.00 | 0.00 | 82 | 1016.7 |
| 20260901135523 | 13 | 329 | 4.8 | 8.0 | 0.00 | 0.00 | 0.00 | 83 | 1016.4 |
| 20260901133527 | 13 | 340 | 3.2 | 6.4 | 0.00 | 0.00 | 0.00 | 84 | 1016.6 |
| 20260901132532 | 13 | 357 | 1.6 | 6.4 | 0.00 | 0.00 | 0.00 | 84 | 1016.7 |
| 20260901131521 | 13 | 358 | 3.2 | 9.7 | 0.00 | 0.00 | 0.00 | 85 | 1017.1 |
| 20260901130528 | 13 | 15 | 1.6 | 4.8 | 0.00 | 0.00 | 0.00 | 84 | 1017.3 |
| 20260901125533 | 13 | 7 | 1.6 | 4.8 | 0.00 | 0.00 | 0.00 | 83 | 1017.6 |
| 20260901124517 | 13 | 358 | 1.6 | 3.2 | 0.00 | 0.00 | 0.00 | 82 | 1017.6 |
| 20260901123526 | 13 | 342 | 0.0 | 4.8 | 0.00 | 0.00 | 0.00 | 81 | 1017.8 |
| 20260901122034 | 13 | 316 | 1.6 | 3.2 | 0.00 | 0.00 | 0.00 | 82 | 1018.0 |
| 20260901121020 | 13 | 344 | 1.6 | 3.2 | 0.00 | 0.00 | 0.00 | 81 | 1018.0 |
| 20260901120024 | 13 | 334 | 1.6 | 4.8 | 0.00 | 0.00 | 0.00 | 80 | 1018.3 |
| 20260901115036 | 14 | 351 | 1.6 | 3.2 | 0.00 | 0.00 | 0.00 | 78 | 1018.3 |
| 20260901082033 | 17 | 320 | 3.2 | 6.4 | 0.00 | 0.00 | 0.00 | 62 | 1019.2 |
| 20260901081033 | 17 | 299 | 4.8 | 16.1 | 0.00 | 0.00 | 0.00 | 60 | 1019.0 |
| 20260901080021 | 17 | 307 | 6.4 | 11.3 | 0.00 | 0.00 | 0.00 | 59 | 1019.0 |
| 20260901075023 | 18 | 305 | 8.0 | 16.1 | 0.00 | 0.00 | 0.00 | 58 | 1019.0 |
| 20260901074026 | 18 | 290 | 6.4 | 16.1 | 0.00 | 0.00 | 0.00 | 56 | 1019.0 |
| 20260901073031 | 18 | 304 | 8.0 | 17.7 | 0.00 | 0.00 | 0.00 | 55 | 1019.0 |
| 20260901072037 | 18 | 305 | 8.0 | 17.7 | 0.00 | 0.00 | 0.00 | 53 | 1019.1 |
| 20260901071037 | 19 | 282 | 11.3 | 17.7 | 0.00 | 0.00 | 0.00 | 51 | 1018.9 |
| 20260901070533 | 19 | 319 | 12.9 | 19.3 | 0.00 | 0.00 | 0.00 | 51 | 1019.0 |
| 20260901064531 | 20 | 297 | 9.7 | 19.3 | 0.00 | 0.00 | 0.00 | 48 | 1019.1 |
| 20260901063025 | 20 | 288 | 8.0 | 17.7 | 0.00 | 0.00 | 0.00 | 50 | 1019.3 |
| 20260901062032 | 20 | 284 | 9.7 | 14.5 | 0.00 | 0.00 | 0.00 | 49 | 1019.4 |
| 20260901060519 | 20 | 291 | 9.7 | 27.4 | 0.00 | 0.00 | 0.00 | 48 | 1019.4 |
| 20260901055523 | 20 | 282 | 9.7 | 24.1 | 0.00 | 0.00 | 0.00 | 48 | 1019.4 |
| 20260901054527 | 20 | 291 | 14.5 | 27.4 | 0.00 | 0.00 | 0.00 | 47 | 1019.4 |
| 20260901053538 | 20 | 289 | 9.7 | 17.7 | 0.00 | 0.00 | 0.00 | 48 | 1019.5 |
| 20260901052547 | 20 | 266 | 9.7 | 17.7 | 0.00 | 0.00 | 0.00 | 47 | 1019.5 |
| 20260901051520 | 20 | 278 | 17.7 | 27.4 | 0.00 | 0.00 | 0.00 | 46 | 1019.6 |
| 20260901051029 | 20 | 328 | 19.3 | 25.7 | 0.00 | 0.00 | 0.00 | 45 | 1019.6 |
| 20260901050951 | 20 | 292 | 16.1 | 33.8 | 0.00 | 0.00 | 0.00 | 46 | 1019.9 |
| 20260901043027 | 21 | 256 | 9.7 | 14.5 | 0.00 | 0.00 | 0.00 | 42 | 1019.8 |
| 20260901042952 | 20 | 268 | 12.9 | 24.1 | 0.00 | 0.00 | 0.00 | 44 | 1019.9 |
| 20260901033521 | 20 | 292 | 16.1 | 30.6 | 0.00 | 0.00 | 0.00 | 42 | 1020.8 |
| 20260901032524 | 20 | 290 | 17.7 | 29.0 | 0.00 | 0.00 | 0.00 | 42 | 1020.8 |
| 20260901031531 | 20 | 273 | 17.7 | 27.4 | 0.00 | 0.00 | 0.00 | 43 | 1021.0 |
| 20260901030031 | 20 | 287 | 16.1 | 30.6 | 0.00 | 0.00 | 0.00 | 43 | 1021.4 |
| 20260901025018 | 20 | 274 | 14.5 | 33.8 | 0.00 | 0.00 | 0.00 | 42 | 1021.5 |